Regional Weather Roundup
Issued by NWS Goodland, KS

Home | Current Version | Previous Version | Text Only | Print | Product List | Glossary On
Versions: 1 2 3 4 5 6 7 8 9 10 11 12 13 14 15 16 17 18 19 20 21 22 23 24 25 26 27 28 29 30 31 32 33 34 35 36 37 38 39 40 41 42 43 44 45 46 47 48 49 50
000
ASUS43 KGLD 302008
RWRGLD

GOODLAND FORECAST AREA HOURLY WEATHER ROUNDUP
NATIONAL WEATHER SERVICE GOODLAND KS
200 PM MDT SAT JUL 30 2016

...OFFICIAL OBSERVATIONS...

CITY           SKY/WX    TMP DP  RH WIND       PRES   REMARKS
GOODLAND KS    SUNNY     87  61  41 SE15G24   29.97F
HILL CITY KS   MOSUNNY   88  68  51 S15G21    29.94F
IMPERIAL NEB   SUNNY     87  60  40 SE15G22   29.95F
MCCOOK NEB     SUNNY     89  62  40 E12       29.93F
AKRON CO       SUNNY     87  52  29 E12G25    30.00F
BURLINGTON CO  SUNNY     86  59  39 SE16G24   29.99F
LIMON CO       SUNNY     91  52  26 VRB5      30.02F
$$

...UNOFFICIAL OBSERVATIONS...

CITY           SKY/WX    TMP DP  RH WIND       PRES   REMARKS
LENORA KS        N/A     87  32  14 MISG        N/A
NORTON KS      SUNNY     88  57  35 SE12G17   29.93F
SHARON SPRINGS   N/A     90  66  45 SE13G21     N/A
KIT CARSON CO    N/A     91  56  30 MISG        N/A
YUMA CO          N/A     85  59  41 E15         N/A
$$



USA.gov is the U.S. government's official web portal to all federal, state and local government web resources and services.